Tracking 22081 objects as of 4-Dec-2020
HD Live streaming from Space Station
objects crossing your sky now

SL-12 DEB

Track SL-12 DEB now!
10-day predictions


NORAD ID: 29458
Int'l Code: 1989-039DC
Perigee: 1,749.3 km
Apogee: 15,861.7 km
Inclination: 65.2 °
Period: 310.1 minutes
Semi major axis: 15176 km
RCS: 0.098 m2 (small)
Launch date: May 31, 1989
Source: Commonwealth of Independent States (former USSR) (CIS)
Launch site: TYURATAM MISSILE AND SPACE COMPLEX (TTMTR)

Note: This is SATELLITE DEBRIS
aabbcc
Your satellite tracking list
Your tracking list is empty




NASA's NSSDC Master Catalog

Two Line Element Set (TLE):
1 29458U 89039DC  16186.38234970 -.00000005 +00000-0 +00000-0 0  9991
2 29458 065.1921 148.0048 4649432 147.4425 000.8013 04.64349342160613
Source of the keplerian elements: AFSPC